Regional Weather Roundup
Issued by NWS

Home | Current Version | Previous Version | Text Only | Print | Product List | Glossary Off
Versions: 1 2 3 4 5 6 7 8 9 10 11 12 13 14 15 16 17 18 19 20 21 22 23 24 25 26 27 28 29 30 31 32 33 34 35 36 37 38 39 40 41 42 43 44 45 46 47 48 49 50

000
ASUS43 KLMK 030202
RWRKY
KENTUCKY REGIONAL WEATHER ROUNDUP
NATIONAL WEATHER SERVICE LOUISVILLE KY
1000 PM EDT WED SEP 02 2015

NOTE "FAIR" INDICATES FEW OR NO CLOUDS BELOW 12,000 FEET
WITH NO SIGNIFICANT WEATHER AND/OR OBSTRUCTIONS TO VISIBILITY.

KYZ001>023-026-027-061>063-070>075-030300-
WESTERN AND SOUTH CENTRAL KENTUCKY

CITY           SKY/WX    TMP DP  RH WIND       PRES   REMARKS
PADUCAH        CLEAR     74  69  85 CALM      30.00R
HENDERSON      CLEAR     73  68  83 CALM      30.01R
OWENSBORO      CLEAR     79  69  71 CALM      30.02R
HOPKINSVILLE   PTCLDY    79  69  70 NE3       30.01R
BOWLING GREEN  CLEAR     77  66  68 CALM      30.03R
GLASGOW        CLEAR     72  67  82 CALM      30.04R
$$

KYZ024-025-028>034-038-045-046-053-030300-
NORTH CENTRAL KENTUCKY

CITY           SKY/WX    TMP DP  RH WIND       PRES   REMARKS
LOUISVILLE/SDF CLEAR     84  67  56 SW3       30.02R
LOUISVILLE/LOU CLEAR     81  69  67 CALM      30.03R
FORT KNOX      CLEAR     73  68  83 CALM      30.03R
$$

KYZ035>037-039>044-047>052-055>060-089>105-030300-
NORTHEAST KENTUCKY

CITY           SKY/WX    TMP DP  RH WIND       PRES   REMARKS
LEXINGTON      CLEAR     78  67  68 CALM      30.05R
COVINGTON      CLEAR     77  67  71 S5        30.05R
FRANKFORT      CLEAR     74  66  76 CALM      30.04R
$$

KYZ054-064>069-076>088-106>120-030300-
SOUTHEAST KENTUCKY

CITY           SKY/WX    TMP DP  RH WIND       PRES   REMARKS
JACKSON        CLEAR     75  66  73 CALM      30.07R
LONDON         PTCLDY    74  64  71 CALM      30.07R
SOMERSET       NOT AVBL
MIDDLESBORO    PTCLDY    72  67  84 CALM      30.08R
MONTICELLO     PTCLDY    69  69 100 CALM      30.08R
$$



USA.gov is the U.S. government's official web portal to all federal, state and local government web resources and services.